Cheyenne F E Warren, WY

6:50 PM MDT on October 23, 2019 (GMT -0600)
Cheyenne F E Warren

Weather History for KFEW - September, 2019

Change the Weather History Date:

Thursday, September 19, 2019

  Actual Average (KCYS) Record (KCYS)
Temperature  
Mean Temperature 58 °F -  
Max Temperature 81 °F 68 °F 88 °F (1935)
Min Temperature 38 °F 41 °F 18 °F (1942)
Degree Days  
Heating Degree Days 6    
Growing Degree Days 8 (Base 50)    
Moisture  
Dew Point 39 °F    
Average Humidity 50    
Maximum Humidity 83    
Minimum Humidity 20    
Precipitation  
Precipitation 0.00 in - - ()
Sea Level Pressure  
Sea Level Pressure 29.86 in    
Wind  
Wind Speed 7 mph (South)    
Max Wind Speed 17 mph    
Max Gust Speed 25 mph    
Visibility 10 miles    
Events      
Averages and records for this station are not official NWS values.
T = Trace of Precipitation, MM = Missing Value Source: NWS Daily Summary

Daily Weather History Graph

Daily Weather History Graph

Search for Another Location

Airport or City:

Astronomy

Sep. 19, 2019 Rise Set
Actual Time 6:43 AM MDT 7:02 PM MDT
Civil Twilight 6:16 AM MDT 7:29 PM MDT
Nautical Twilight 5:43 AM MDT 8:01 PM MDT
Astronomical Twilight 5:10 AM MDT 8:34 PM MDT
Moon 10:09 PM MDT (9/19) 11:52 AM MDT (9/19)
Length of Visible Light 13h 13m
Length of Day
12h 18m
Waning Gibbous, 74% of the Moon is Illuminated
Sep 19
Waning Gibbous
Sep 21
Last Quarter
Sep 28
New
Oct 5
First Quarter
Oct 13
Full

Hourly Weather History & Observations

Time (MDT) Temp. Windchill Dew Point Humidity Pressure Visibility Wind Dir Wind Speed Gust Speed Precip Events Conditions
12:58 AM 51.3 °F - 40.3 °F 66% 29.92 in 10.0 mi SSW 6.9 mph - N/A   Clear
1:58 AM 48.7 °F - 40.3 °F 73% 29.95 in 10.0 mi NNW 4.6 mph - N/A   Clear
2:58 AM 47.1 °F - 39.0 °F 73% 29.93 in 10.0 mi NW 6.9 mph - N/A   Clear
3:58 AM 44.8 °F - 38.5 °F 79% 29.93 in 10.0 mi Calm Calm - N/A   Clear
4:58 AM 40.1 °F - 35.1 °F 82% 29.95 in 10.0 mi Calm Calm - N/A   Clear
5:58 AM 40.8 °F 38.8 °F 36.0 °F 83% 29.95 in 10.0 mi WNW 3.5 mph - N/A   Clear
6:58 AM 38.3 °F - 33.4 °F 83% 29.97 in 10.0 mi Calm Calm - N/A   Partly Cloudy
7:58 AM 49.5 °F - 39.0 °F 67% 29.97 in 10.0 mi Calm Calm - N/A   Clear
8:58 AM 63.0 °F - 49.1 °F 61% 29.93 in 10.0 mi SSW 8.1 mph - N/A   Clear
9:58 AM 68.4 °F - 47.7 °F 48% 29.91 in 10.0 mi South 5.8 mph - N/A   Clear
10:58 AM 73.2 °F - 44.1 °F 35% 29.87 in 10.0 mi SSE 5.8 mph - N/A   Clear
11:58 AM 76.6 °F - 37.9 °F 25% 29.85 in 10.0 mi South 6.9 mph - N/A   Clear
12:58 PM 79.5 °F - 35.8 °F 21% 29.84 in 8.0 mi SSE 13.8 mph - N/A   Clear
1:58 PM 79.7 °F - 36.7 °F 21% 29.81 in 10.0 mi SE 13.8 mph 23.0 mph N/A   Clear
2:58 PM 79.9 °F - 35.1 °F 20% 29.80 in 10.0 mi SSE 16.1 mph 23.0 mph N/A   Partly Cloudy
3:59 PM 79.0 °F - 35.1 °F 20% 29.79 in 10.0 mi SSE 15.0 mph 23.0 mph N/A   Partly Cloudy
4:58 PM 78.6 °F - 36.1 °F 22% 29.79 in 10.0 mi ESE 15.0 mph - N/A   Clear
5:58 PM 75.9 °F - 34.9 °F 22% 29.78 in 10.0 mi SE 11.5 mph - N/A   Clear
6:58 PM 68.4 °F - 34.7 °F 29% 29.82 in 10.0 mi SSE 5.8 mph - N/A   Clear
7:58 PM 57.6 °F - 35.4 °F 43% 29.82 in 10.0 mi South 5.8 mph - N/A   Clear
8:58 PM 56.1 °F - 35.8 °F 46% 29.79 in 10.0 mi WNW 3.5 mph - N/A   Clear
9:58 PM 53.1 °F - 36.1 °F 53% 29.77 in 10.0 mi South 3.5 mph - N/A   Clear
10:58 PM 64.6 °F - 48.4 °F 56% 29.72 in 10.0 mi SSE 15.0 mph 20.7 mph N/A   Clear
11:58 PM 63.1 °F - 49.8 °F 62% 29.72 in 10.0 mi SSE 17.3 mph 25.3 mph N/A   Partly Cloudy